| time (UTC) | temp F | wind direction | speed knots | gust knots | rain 1hr in | rain 24hr in | rain mn in | humidity % | barometer mb |
| 20260503053605 | 49 | 90 | 0.0 | 0.9 | 0.00 | 0.00 | 0.00 | 82 | 1017.8 |
| 20260503052703 | 48 | 0 | 0.0 | 0.0 | 0.00 | 0.00 | 0.00 | 85 | 1017.8 |
| 20260503052019 | 47 | 0 | 0.0 | 0.0 | 0.00 | 0.00 | 0.00 | 86 | 1017.7 |
| 20260503050903 | 46 | 0 | 0.0 | 0.0 | 0.00 | 0.00 | 0.00 | 88 | 1017.6 |
| 20260503050005 | 45 | 0 | 0.0 | 0.0 | 0.00 | 0.00 | 0.00 | 89 | 1017.7 |
| 20260503045403 | 44 | 0 | 0.0 | 0.0 | 0.00 | 0.00 | 0.00 | 90 | 1017.7 |
| 20260503044503 | 44 | 0 | 0.0 | 0.0 | 0.00 | 0.00 | 0.00 | 91 | 1017.6 |
| 20260503043605 | 43 | 0 | 0.0 | 0.0 | 0.00 | 0.00 | 0.00 | 91 | 1017.6 |
| 20260503042705 | 43 | 0 | 0.0 | 0.0 | 0.00 | 0.00 | 0.00 | 91 | 1017.7 |
| 20260503041803 | 43 | 0 | 0.0 | 0.0 | 0.00 | 0.00 | 0.00 | 92 | 1017.5 |
| 20260503040905 | 43 | 0 | 0.0 | 0.0 | 0.00 | 0.00 | 0.00 | 92 | 1017.7 |
| 20260503040005 | 42 | 0 | 0.0 | 0.0 | 0.00 | 0.00 | 0.00 | 91 | 1017.5 |
| 20260503035403 | 43 | 0 | 0.0 | 0.0 | 0.00 | 0.00 | 0.00 | 91 | 1017.2 |
| 20260503034503 | 43 | 0 | 0.0 | 0.0 | 0.00 | 0.00 | 0.00 | 92 | 1017.2 |
| 20260503033603 | 43 | 0 | 0.0 | 0.0 | 0.00 | 0.00 | 0.00 | 92 | 1017.5 |
| 20260503032703 | 43 | 0 | 0.0 | 0.0 | 0.00 | 0.00 | 0.00 | 91 | 1017.3 |
| 20260503031804 | 43 | 0 | 0.0 | 0.0 | 0.00 | 0.00 | 0.00 | 92 | 1017.7 |
| 20260503030905 | 42 | 0 | 0.0 | 0.0 | 0.00 | 0.00 | 0.00 | 91 | 1017.4 |
| 20260503030005 | 43 | 0 | 0.0 | 0.0 | 0.00 | 0.00 | 0.00 | 90 | 1017.4 |
| 20260503025403 | 43 | 0 | 0.0 | 0.0 | 0.00 | 0.00 | 0.00 | 90 | 1017.5 |
| 20260503024718 | 44 | 0 | 0.0 | 0.0 | 0.00 | 0.00 | 0.00 | 90 | 1017.7 |
| 20260503023605 | 44 | 0 | 0.0 | 0.0 | 0.00 | 0.00 | 0.00 | 90 | 1017.7 |
| 20260503022705 | 44 | 0 | 0.0 | 0.0 | 0.00 | 0.00 | 0.00 | 90 | 1017.5 |
| 20260503021805 | 44 | 0 | 0.0 | 0.0 | 0.00 | 0.00 | 0.00 | 89 | 1017.5 |
| 20260503020903 | 44 | 0 | 0.0 | 0.0 | 0.00 | 0.00 | 0.00 | 90 | 1017.6 |
| 20260503020005 | 44 | 0 | 0.0 | 0.0 | 0.00 | 0.00 | 0.00 | 90 | 1017.7 |
| 20260503015620 | 44 | 0 | 0.0 | 0.0 | 0.00 | 0.00 | 0.00 | 90 | 1017.8 |
| 20260503014505 | 44 | 0 | 0.0 | 0.0 | 0.00 | 0.00 | 0.00 | 90 | 1017.9 |
| 20260503013605 | 44 | 0 | 0.0 | 0.0 | 0.00 | 0.00 | 0.00 | 90 | 1017.7 |
| 20260503012705 | 44 | 0 | 0.0 | 0.0 | 0.00 | 0.00 | 0.00 | 89 | 1017.8 |
| 20260503012020 | 44 | 0 | 0.0 | 0.0 | 0.00 | 0.00 | 0.00 | 89 | 1017.9 |
| 20260503010903 | 44 | 0 | 0.0 | 0.0 | 0.00 | 0.00 | 0.00 | 88 | 1018.2 |
| 20260503010004 | 45 | 0 | 0.0 | 0.0 | 0.00 | 0.00 | 0.00 | 88 | 1017.9 |
| 20260503005403 | 45 | 0 | 0.0 | 0.0 | 0.00 | 0.00 | 0.00 | 88 | 1017.8 |
| 20260503004505 | 45 | 0 | 0.0 | 0.0 | 0.00 | 0.00 | 0.00 | 87 | 1018.1 |
| 20260503003603 | 45 | 0 | 0.0 | 0.0 | 0.00 | 0.00 | 0.00 | 87 | 1017.9 |
| 20260503002703 | 45 | 0 | 0.0 | 0.0 | 0.00 | 0.00 | 0.00 | 87 | 1018.2 |
| 20260503002017 | 45 | 0 | 0.0 | 0.0 | 0.00 | 0.00 | 0.00 | 88 | 1017.9 |
| 20260503000903 | 45 | 0 | 0.0 | 0.0 | 0.00 | 0.00 | 0.00 | 86 | 1018.2 |
| 20260503000005 | 46 | 0 | 0.0 | 0.0 | 0.00 | 0.00 | 0.00 | 85 | 1018.3 |
| 20260502235404 | 46 | 0 | 0.0 | 0.0 | 0.00 | 0.00 | 0.00 | 85 | 1018.2 |
| 20260502234719 | 46 | 0 | 0.0 | 0.0 | 0.00 | 0.00 | 0.00 | 85 | 1018.4 |
| 20260502233603 | 46 | 0 | 0.0 | 0.0 | 0.00 | 0.00 | 0.00 | 85 | 1018.5 |
| 20260502232703 | 46 | 0 | 0.0 | 0.0 | 0.00 | 0.00 | 0.00 | 84 | 1018.6 |
| 20260502231804 | 47 | 0 | 0.0 | 0.0 | 0.00 | 0.00 | 0.00 | 82 | 1018.5 |
| 20260502230903 | 47 | 0 | 0.0 | 0.0 | 0.00 | 0.00 | 0.00 | 81 | 1018.7 |
| 20260502230219 | 47 | 0 | 0.0 | 0.0 | 0.00 | 0.00 | 0.00 | 82 | 1018.5 |
| 20260502225405 | 47 | 0 | 0.0 | 0.0 | 0.00 | 0.00 | 0.00 | 80 | 1018.6 |
| 20260502224718 | 47 | 0 | 0.0 | 0.0 | 0.00 | 0.00 | 0.00 | 81 | 1018.5 |
| 20260502223603 | 48 | 0 | 0.0 | 0.0 | 0.00 | 0.00 | 0.00 | 80 | 1018.9 |
| 20260502222705 | 48 | 0 | 0.0 | 0.0 | 0.00 | 0.00 | 0.00 | 79 | 1018.6 |
| 20260502221805 | 49 | 0 | 0.0 | 0.0 | 0.00 | 0.00 | 0.00 | 77 | 1018.6 |
| 20260502221118 | 49 | 0 | 0.0 | 0.0 | 0.00 | 0.00 | 0.00 | 76 | 1018.8 |
| 20260502220005 | 49 | 0 | 0.0 | 0.0 | 0.00 | 0.00 | 0.00 | 76 | 1018.6 |
| 20260502215405 | 49 | 0 | 0.0 | 0.0 | 0.00 | 0.00 | 0.00 | 76 | 1018.8 |
| 20260502214503 | 50 | 0 | 0.0 | 0.0 | 0.00 | 0.00 | 0.00 | 75 | 1018.7 |
| 20260502213605 | 51 | 0 | 0.0 | 0.0 | 0.00 | 0.00 | 0.00 | 73 | 1018.6 |
| 20260502212705 | 51 | 0 | 0.0 | 0.0 | 0.00 | 0.00 | 0.00 | 73 | 1018.6 |
| 20260502212018 | 51 | 0 | 0.0 | 0.0 | 0.00 | 0.00 | 0.00 | 72 | 1018.6 |
| 20260502210903 | 52 | 0 | 0.0 | 0.0 | 0.00 | 0.00 | 0.00 | 72 | 1018.7 |
| 20260502210004 | 52 | 0 | 0.0 | 0.0 | 0.00 | 0.00 | 0.00 | 71 | 1018.8 |
| 20260502205405 | 52 | 0 | 0.0 | 0.0 | 0.00 | 0.00 | 0.00 | 71 | 1019.0 |
| 20260502204505 | 53 | 0 | 0.0 | 0.0 | 0.00 | 0.00 | 0.00 | 70 | 1019.0 |
| 20260502203819 | 53 | 0 | 0.0 | 0.0 | 0.00 | 0.00 | 0.00 | 69 | 1018.8 |
| 20260502202918 | 54 | 0 | 0.0 | 0.0 | 0.00 | 0.00 | 0.00 | 68 | 1018.8 |
| 20260502202020 | 54 | 0 | 0.0 | 0.0 | 0.00 | 0.00 | 0.00 | 67 | 1018.9 |
| 20260502200905 | 54 | 0 | 0.0 | 0.0 | 0.00 | 0.00 | 0.00 | 67 | 1019.1 |
| 20260502200005 | 54 | 0 | 0.0 | 0.0 | 0.00 | 0.00 | 0.00 | 65 | 1019.0 |
| 20260502195405 | 55 | 0 | 0.0 | 0.0 | 0.00 | 0.00 | 0.00 | 66 | 1018.7 |
| 20260502194503 | 56 | 0 | 0.0 | 0.0 | 0.00 | 0.00 | 0.00 | 64 | 1018.9 |
| 20260502193603 | 56 | 0 | 0.0 | 0.0 | 0.00 | 0.00 | 0.00 | 62 | 1018.7 |
| 20260502192703 | 57 | 0 | 0.0 | 0.0 | 0.00 | 0.00 | 0.00 | 60 | 1018.5 |
| 20260502191805 | 58 | 0 | 0.0 | 0.0 | 0.00 | 0.00 | 0.00 | 58 | 1018.7 |
| 20260502190903 | 58 | 0 | 0.0 | 0.0 | 0.00 | 0.00 | 0.00 | 58 | 1018.7 |
| 20260502190004 | 59 | 0 | 0.0 | 0.0 | 0.00 | 0.00 | 0.00 | 57 | 1018.6 |
| 20260502185403 | 59 | 0 | 0.0 | 0.0 | 0.00 | 0.00 | 0.00 | 57 | 1018.6 |
| 20260502184505 | 60 | 0 | 0.0 | 0.0 | 0.00 | 0.00 | 0.00 | 54 | 1018.6 |
| 20260502183605 | 61 | 0 | 0.0 | 0.0 | 0.00 | 0.00 | 0.00 | 53 | 1018.4 |
| 20260502182019 | 62 | 0 | 0.0 | 0.0 | 0.00 | 0.00 | 0.00 | 50 | 1018.5 |
| 20260502180905 | 63 | 0 | 0.0 | 0.0 | 0.00 | 0.00 | 0.00 | 48 | 1018.3 |
| 20260502180220 | 64 | 0 | 0.0 | 0.0 | 0.00 | 0.00 | 0.00 | 46 | 1018.3 |
| 20260502170217 | 75 | 90 | 0.9 | 1.7 | 0.00 | 0.00 | 0.00 | 29 | 1018.3 |
| 20260502163819 | 77 | 114 | 0.9 | 1.7 | 0.00 | 0.00 | 0.00 | 27 | 1018.2 |
| 20260502162703 | 77 | 13 | 0.9 | 1.7 | 0.00 | 0.00 | 0.00 | 26 | 1018.5 |
| 20260502161804 | 77 | 347 | 0.9 | 1.7 | 0.00 | 0.00 | 0.00 | 26 | 1018.4 |
| 20260502160905 | 76 | 312 | 0.9 | 2.6 | 0.00 | 0.00 | 0.00 | 26 | 1018.5 |
| 20260502151803 | 80 | 108 | 0.0 | 2.6 | 0.00 | 0.00 | 0.00 | 25 | 1018.9 |
| 20260502151119 | 78 | 95 | 0.9 | 3.5 | 0.00 | 0.00 | 0.00 | 27 | 1019.1 |
| 20260502123604 | 75 | 120 | 1.7 | 5.2 | 0.00 | 0.00 | 0.00 | 31 | 1020.8 |
| 20260502122705 | 75 | 19 | 1.7 | 7.0 | 0.00 | 0.00 | 0.00 | 30 | 1020.9 |
| 20260502121803 | 76 | 51 | 1.7 | 7.0 | 0.00 | 0.00 | 0.00 | 30 | 1021.0 |
| 20260502120904 | 76 | 82 | 2.6 | 7.0 | 0.00 | 0.00 | 0.00 | 28 | 1021.2 |
| 20260502115403 | 76 | 24 | 1.7 | 3.5 | 0.00 | 0.00 | 0.00 | 26 | 1021.3 |
| 20260502114505 | 76 | 19 | 0.9 | 3.5 | 0.00 | 0.00 | 0.00 | 28 | 1021.3 |
| 20260502113605 | 74 | 22 | 1.7 | 7.0 | 0.00 | 0.00 | 0.00 | 30 | 1021.6 |
| 20260502112705 | 73 | 329 | 2.6 | 7.0 | 0.00 | 0.00 | 0.00 | 31 | 1021.4 |
| 20260502111805 | 74 | 30 | 1.7 | 7.0 | 0.00 | 0.00 | 0.00 | 30 | 1021.8 |
| 20260502110905 | 74 | 321 | 1.7 | 5.2 | 0.00 | 0.00 | 0.00 | 30 | 1021.6 |
| 20260502110219 | 73 | 288 | 1.7 | 6.1 | 0.00 | 0.00 | 0.00 | 31 | 1021.7 |
| 20260502105404 | 73 | 351 | 1.7 | 7.0 | 0.00 | 0.00 | 0.00 | 30 | 1022.0 |
| 20260502104505 | 73 | 348 | 1.7 | 7.0 | 0.00 | 0.00 | 0.00 | 28 | 1022.1 |
| 20260502103605 | 72 | 282 | 1.7 | 7.0 | 0.00 | 0.00 | 0.00 | 29 | 1022.2 |
| 20260502102705 | 73 | 241 | 1.7 | 6.1 | 0.00 | 0.00 | 0.00 | 31 | 1022.4 |
| 20260502101805 | 72 | 15 | 1.7 | 6.1 | 0.00 | 0.00 | 0.00 | 31 | 1022.3 |
| 20260502101119 | 72 | 246 | 0.9 | 7.0 | 0.00 | 0.00 | 0.00 | 33 | 1022.6 |
| 20260502090905 | 72 | 101 | 0.9 | 3.5 | 0.00 | 0.00 | 0.00 | 31 | 1023.1 |
| 20260502070905 | 65 | 33 | 0.9 | 1.7 | 0.00 | 0.00 | 0.00 | 46 | 1023.6 |
| 20260502070005 | 64 | 91 | 0.0 | 1.7 | 0.00 | 0.00 | 0.00 | 48 | 1023.7 |
| 20260502065404 | 62 | 94 | 0.0 | 1.7 | 0.00 | 0.00 | 0.00 | 50 | 1023.6 |
| 20260502064718 | 60 | 104 | 0.9 | 1.7 | 0.00 | 0.00 | 0.00 | 52 | 1023.6 |
| 20260502063603 | 56 | 132 | 0.0 | 0.9 | 0.00 | 0.00 | 0.00 | 60 | 1023.6 |
| 20260502062704 | 55 | 115 | 0.0 | 1.7 | 0.00 | 0.00 | 0.00 | 62 | 1023.6 |
| 20260502061805 | 54 | 110 | 0.0 | 1.7 | 0.00 | 0.00 | 0.00 | 65 | 1023.6 |
| 20260502060903 | 53 | 112 | 0.0 | 1.7 | 0.00 | 0.00 | 0.00 | 66 | 1023.7 |
| 20260502060005 | 52 | 118 | 0.9 | 1.7 | 0.00 | 0.00 | 0.00 | 68 | 1023.9 |
| 20260502055405 | 51 | 124 | 0.9 | 1.7 | 0.00 | 0.00 | 0.00 | 69 | 1023.7 |
| 20260502054718 | 51 | 118 | 0.0 | 1.7 | 0.00 | 0.00 | 0.00 | 72 | 1023.7 |